This is the latest recevied weather packets stored in our database for station/object K4QXN-13. If no packets are shown the sender has not sent any weather packets the latest 10 day(s).
| Time | Temp. | Humidity | Pressure | Rain* | Wind** | Luminosity | Snow |
|---|---|---|---|---|---|---|---|
| 1788542218 | 35.56° C | 58% | 1016.5 hPa | 0 mm | - | - | - |
| 1788541917 | 35.56° C | 57% | 1016.9 hPa | 0 mm | - | - | - |
| 1788541615 | 35° C | 61% | 1016.9 hPa | 0 mm | - | - | - |
| 1788541343 | 35° C | 58% | 1016.9 hPa | 0 mm | - | - | - |
| 1788541012 | 35.56° C | 59% | 1016.9 hPa | 0 mm | - | - | - |
| 1788540710 | 35° C | 59% | 1017.2 hPa | 0 mm | - | - | - |
| 1788540409 | 35° C | 59% | 1017.2 hPa | 0 mm | - | - | - |
| 1788540107 | 35° C | 60% | 1017.2 hPa | 0 mm | - | - | - |
| 1788539806 | 35° C | 61% | 1017.2 hPa | 0 mm | - | - | - |
| 1788539504 | 33.89° C | 62% | 1017.6 hPa | 0 mm | - | - | - |
| 1788539202 | 33.89° C | 62% | 1017.2 hPa | 0 mm | - | - | - |
| 1788538901 | 34.44° C | 62% | 1017.2 hPa | 0 mm | - | - | - |
| 1788538599 | 34.44° C | 63% | 1017.6 hPa | 0 mm | - | - | - |
| 1788538298 | 33.89° C | 64% | 1017.6 hPa | 0 mm | - | - | - |
| 1788537996 | 33.89° C | 64% | 1017.6 hPa | 0 mm | - | - | - |
| 1788537694 | 33.89° C | 64% | 1017.6 hPa | 0 mm | - | - | - |
| 1788537393 | 33.33° C | 65% | 1017.6 hPa | 0 mm | - | - | - |
| 1788537091 | 33.89° C | 67% | 1017.6 hPa | 0 mm | - | - | - |
| 1788536790 | 32.78° C | 67% | 1017.9 hPa | 0 mm | - | - | - |
| 1788536488 | 33.33° C | 66% | 1017.9 hPa | 0 mm | - | - | - |
| 1788536186 | 32.78° C | 66% | 1017.9 hPa | 0 mm | - | - | - |
| 1788535885 | 32.22° C | 68% | 1017.9 hPa | 0 mm | - | - | - |
| 1788535583 | 32.78° C | 67% | 1017.9 hPa | 0 mm | - | - | - |
| 1788535281 | 32.78° C | 68% | 1017.6 hPa | 0 mm | - | - | - |
| 1788534980 | 32.78° C | 69% | 1017.9 hPa | 0 mm | - | - | - |
* Rain latest hour (hover to see other rain measurements)
** Current wind speed in m/s (hover to see current wind gust speed)